This demonstration page uses our WeatherBlox Daily Observations layout. Learn more.

Left ArrowRight Arrow

Hourly Observations for May 5, 2018

Temp ( °F °C ) Dew Point ( °F °C ) Humidity (%) Winds ( mph kmh ) Pressure ( in mb ) Visibility ( mi km ) Precip ( " mm )
12:53 am 00:53 Clear with Mist and Fog 56 13.3 55 12.8 97 97 Calm 30.09 1019 5 8 0.00 0.00
1:53 am 01:53 Clear 55 12.8 54 12.2 96 96 Calm 30.08 1019 9 14 0.00 0.00
2:53 am 02:53 Clear 56 13.3 54 12.2 93 93 Calm 30.07 1018 10 16 0.00 0.00
3:53 am 03:53 Clear 54 12.2 52 11.1 93 93 Calm 30.07 1018 10 16 0.00 0.00
4:53 am 04:53 Clear 55 12.8 54 12.2 96 96 Calm 30.08 1019 10 16 0.00 0.00
5:53 am 05:53 Clear 55 12.8 54 12.2 96 96 Calm 30.08 1019 8 13 0.00 0.00
6:53 am 06:53 Sunny with Mist and Fog 54 12.2 53 11.7 97 97 Calm 30.10 1019 6 10 0.00 0.00
7:53 am 07:53 Sunny 57 13.9 55 12.8 93 93 Calm 30.09 1019 9 14 0.00 0.00
8:53 am 08:53 Sunny 60 15.6 55 12.8 84 84 Calm 30.09 1019 10 16 0.00 0.00
9:53 am 09:53 Sunny 62 16.7 54 12.2 75 75 Calm 30.09 1019 10 16 0.00 0.00
10:53 am 10:53 Sunny 65 18.3 52 11.1 63 63 Calm 30.09 1019 10 16 0.00 0.00
11:53 am 11:53 Mostly Sunny 67 19.4 53 11.7 61 61 VRB 5 7 30.08 1019 10 16 0.00 0.00
12:53 pm 12:53 Mostly Cloudy 67 19.4 53 11.7 61 61 Calm 30.07 1018 10 16 0.00 0.00
1:53 pm 13:53 Sunny 67 19.4 54 12.2 63 63 SE 5 7 30.06 1018 10 16 0.00 0.00
2:53 pm 14:53 Mostly Cloudy 67 19.4 55 12.8 66 66 Calm 30.05 1018 10 16 0.00 0.00
3:53 pm 15:53 Mostly Cloudy 66 18.9 57 13.9 73 73 VRB 5 7 30.05 1018 10 16 0.00 0.00
4:53 pm 16:53 Mostly Cloudy 65 18.3 57 13.9 76 76 SE 5 7 30.04 1017 10 16 0.00 0.00
5:53 pm 17:53 Cloudy 64 17.8 56 13.3 75 75 E 3 6 30.03 1017 10 16 0.00 0.00
6:53 pm 18:53 Cloudy 64 17.8 55 12.8 73 73 Calm 30.01 1016 10 16 0.00 0.00
7:53 pm 19:53 Mostly Cloudy 63 17.2 53 11.7 70 70 ESE 3 6 30.00 1016 10 16 0.00 0.00
8:53 pm 20:53 Clear 60 15.6 54 12.2 80 80 E 5 7 30.01 1016 10 16 0.00 0.00
9:53 pm 21:53 Clear 60 15.6 55 12.8 84 84 ESE 7 11 30.00 1016 10 16 0.00 0.00
10:53 pm 22:53 Clear 60 15.6 54 12.2 80 80 Calm 30.03 1017 10 16 0.00 0.00
11:53 pm 23:53 Clear 57 13.9 54 12.2 90 90 Calm 30.01 1016 10 16 0.00 0.00

Powered by AerisWeather